Location: Newark
(35.8833°N, 14.5000°E)
Time: 21:09:11
(UTC+00:00)

Altair - Pass Details

Date: 22 November 2019
Orbit: 1502 x 1682 km, 47.2° (Epoch: 12 December)

Event Time Altitude Azimuth Distance (km) Brightness Sun altitude
Rises 02:45:34 0° 267° (W) 4,645 - -36.0°
Reaches altitude 10° 02:48:48 10° 274° (W) 3,655 - -35.4°
Exits shadow 02:57:28 46° 345° (NNW) 1,928 7.8 -33.6°
Maximum altitude 02:57:31 46° 346° (NNW) 1,928 7.8 -33.6°
Drops below altitude 10° 03:06:19 10° 58° (ENE) 3,682 10.1 -31.8°
Sets 03:09:36 0° 64° (ENE) 4,683 10.9 -31.2°
